Theta_e
316 316 317 317 317 317 317 318 318 318 317 315 314 314 315 317 317 313 312 319 316 309 310 313 314 311 311 311 307 310 309 310 310 305 303 303 302 304 303 305 305 301 300 300 302 300 296 317 318 310 313 317 319 317
316 316 316 317 316 316 317 317 317 317 316 315 314 313 315 317 316 315 312 317 319 313 311 315 315 316 315 315 310 311 308 309 310 305 306 306 302 304 302 297 308 301 305 301 304 303 314 320 318 321 319 316 319 318
314 314 315 316 316 316 316 316 317 317 316 315 313 313 314 316 316 313 310 313 314 311 310 311 312 318 320 319 318 308 310 313 312 315 309 307 302 305 299 300 303 306 310 303 305 311 311 317 321 322 321 319 320 321
314 314 314 315 315 315 316 316 316 317 316 315 313 313 313 315 315 313 308 312 312 311 303 310 319 315 320 319 318 316 313 315 313 313 308 306 302 308 302 304 303 306 306 304 303 309 311 317 319 319 319 321 321 323
314 314 314 314 313 314 315 315 315 316 316 314 313 312 313 314 314 312 310 312 317 311 303 305 311 314 315 317 316 316 314 312 311 307 306 304 307 306 306 305 302 307 306 302 301 308 309 310 315 322 318 316 318 319
313 314 314 314 314 314 315 315 315 316 315 313 312 312 313 313 313 310 311 319 315 316 306 299 311 311 317 320 317 317 315 314 313 308 308 309 312 308 301 299 307 308 311 313 309 313 312 315 317 317 315 318 319 319
313 313 313 314 314 314 314 314 314 315 314 313 311 311 312 312 309 305 306 311 310 310 306 301 303 314 315 316 314 313 317 315 313 310 308 308 308 309 304 299 307 310 312 313 314 313 310 313 311 315 315 317 319 320
313 313 313 314 314 314 314 314 314 314 313 312 311 311 312 311 309 306 312 310 311 308 309 299 301 307 316 310 308 316 313 313 312 310 311 308 309 309 301 307 310 313 313 312 312 312 311 312 314 314 316 316 316 317
312 313 313 313 314 314 314 314 314 313 312 310 311 311 309 308 308 314 316 312 313 311 302 303 300 302 314 311 312 312 313 305 313 307 308 309 305 302 306 309 312 313 310 309 311 311 311 311 312 314 315 315 314 316
311 312 312 313 313 313 313 313 313 312 310 310 308 305 303 314 316 317 311 309 308 308 307 299 305 300 307 309 308 309 310 306 301 307 312 306 303 310 312 312 312 312 313 313 310 309 311 311 312 313 314 315 315 317
311 312 312 312 312 313 313 313 311 310 308 306 303 304 315 316 312 310 305 302 305 302 306 305 304 301 312 306 307 311 306 306 299 305 304 302 303 311 313 313 315 316 316 315 316 316 316 316 314 313 314 315 316 317
311 311 312 312 312 312 312 311 310 307 308 307 305 306 308 310 306 301 300 305 303 300 307 305 307 309 313 316 308 308 304 304 297 309 303 298 308 313 315 314 315 316 316 316 318 317 317 318 318 318 317 317 317 317
310 311 311 311 312 312 312 310 309 309 309 307 304 302 304 304 293 295 294 300 302 307 307 310 307 310 313 312 306 305 300 299 308 302 300 304 312 314 314 316 315 316 317 317 317 317 317 319 321 320 318 319 319 319
310 311 311 311 311 311 310 309 309 308 305 301 300 290 297 296 298 300 300 302 307 312 309 309 308 307 310 306 306 300 304 305 299 297 299 309 313 314 316 316 315 314 314 315 315 316 317 319 322 323 321 320 319 318
310 310 311 311 311 311 309 309 309 307 303 301 302 292 297 302 305 306 307 306 310 312 310 308 308 308 305 304 305 304 301 298 301 301 306 313 316 317 316 316 315 313 313 313 314 315 317 322 322 320 322 322 321 320
310 310 310 311 310 309 308 309 307 306 304 302 303 299 303 303 303 305 306 306 311 311 311 310 306 304 302 304 301 300 300 299 303 309 315 317 317 316 317 316 315 314 313 313 316 318 321 322 321 321 322 322 321 320
310 307 310 310 309 308 308 306 304 302 301 301 300 305 305 305 303 304 308 309 314 308 305 307 301 301 308 303 302 308 303 306 311 312 316 319 317 317 317 316 315 314 314 315 317 319 319 319 321 321 319 320 322 322
307 309 309 308 307 307 306 304 303 301 297 301 299 303 305 306 305 306 307 311 310 308 309 305 307 302 301 299 301 309 310 311 314 315 319 320 320 319 318 316 316 315 314 315 317 318 322 318 318 320 322 322 322 320
308 308 308 308 307 304 300 301 303 297 300 303 305 306 306 306 308 310 309 311 313 315 309 307 303 301 303 307 309 309 310 312 314 315 320 322 320 317 316 316 316 315 314 314 316 315 319 322 322 322 322 320 318 317
309 308 308 308 307 303 301 302 308 301 299 303 306 304 305 305 308 308 308 308 308 309 307 304 304 307 309 312 312 310 315 319 318 314 315 318 320 318 317 316 315 317 316 315 316 310 319 319 321 320 322 321 319 320
306 307 308 308 305 303 304 304 303 304 304 302 305 306 304 308 305 304 305 310 307 304 303 307 308 311 317 318 318 318 319 320 318 318 318 316 320 319 319 319 318 319 316 314 314 314 314 317 320 321 321 321 323 322
306 308 305 305 301 305 304 307 304 307 303 303 304 305 306 307 308 308 310 307 305 307 309 310 312 315 315 315 319 323 323 324 323 322 314 317 318 318 318 319 318 317 317 315 315 314 315 317 318 320 319 319 316 319
307 306 304 303 300 297 295 309 302 302 299 302 306 304 306 308 310 315 308 309 310 315 317 316 317 321 320 323 323 324 323 323 323 323 322 323 322 322 319 317 316 317 316 317 319 317 316 310 315 318 318 319 318 318
309 304 301 299 299 294 304 301 304 302 305 303 304 302 304 306 314 307 304 308 314 316 314 313 316 318 319 320 318 319 320 324 323 323 323 320 316 317 320 318 319 319 320 320 320 319 318 317 311 317 317 316 315 315
295 295 297 289 301 298 298 299 301 302 300 303 302 303 307 314 306 305 306 311 314 316 316 319 317 317 314 314 315 316 320 320 317 315 319 318 319 318 318 318 321 322 322 319 318 318 318 318 317 318 317 315 314 313
288 297 293 298 300 298 300 298 300 301 302 301 302 306 307 306 302 301 304 310 315 314 316 318 316 315 315 316 316 317 318 318 315 313 314 315 318 316 316 315 316 318 321 320 319 317 317 317 317 316 315 311 304 313
291 297 302 306 304 306 304 305 305 303 300 299 302 303 303 300 298 302 310 314 316 319 321 319 318 315 313 315 319 321 318 317 316 314 315 315 316 316 315 312 314 319 319 318 318 317 316 316 315 314 314 314 312 312
301 304 299 302 303 305 302 302 301 299 301 306 306 301 299 303 300 308 313 318 318 320 320 319 321 319 318 319 319 314 314 317 319 317 317 317 317 316 318 317 317 304 310 310 317 317 316 315 315 314 313 312 313 314
302 305 305 302 303 304 303 302 302 305 309 309 304 304 306 315 319 318 320 319 321 322 317 319 320 321 321 317 319 318 318 317 315 313 310 312 313 316 317 315 314 316 316 313 300 306 313 315 315 314 315 314 314 315
302 307 304 303 301 300 304 306 306 310 314 314 314 313 315 317 321 323 320 320 319 319 319 319 319 317 315 315 314 316 317 318 314 314 312 311 314 317 317 316 316 317 318 317 316 316 310 314 311 315 314 314 314 313
307 306 304 304 301 306 308 311 312 313 312 311 314 312 310 315 318 320 317 320 317 316 315 315 314 315 315 314 315 314 314 318 321 321 319 317 316 320 322 321 316 318 319 317 314 315 313 314 314 313 313 313 313 311
307 305 303 301 306 311 313 312 310 311 313 310 310 312 314 313 312 315 321 318 315 315 312 317 316 316 318 318 319 319 310 319 321 321 322 320 323 322 319 318 317 320 320 319 317 315 316 315 314 314 312 314 315 314
306 307 307 307 308 309 315 313 309 309 311 309 310 311 312 310 310 318 324 323 321 318 319 318 319 320 323 324 322 319 314 315 305 296 297 296 296 306 317 319 319 320 318 317 316 316 316 315 314 313 313 312 310 310
Wind_Speed
11 10 10 9 9 9 9 9 9 9 9 10 12 14 15 15 16 9 7 7 4 4 13 8 11 9 10 7 4 9 8 8 5 3 3 4 3 5 5 6 6 3 3 3 4 3 5 14 7 7 5 6 12 22
11 10 10 9 9 9 9 9 9 8 8 9 10 12 12 13 13 13 4 8 8 5 9 21 21 19 19 15 7 5 5 5 3 3 5 4 6 4 6 5 8 6 2 2 4 2 5 2 5 6 4 1 6 10
13 13 11 10 9 9 9 9 8 8 8 8 8 10 11 11 11 9 6 7 8 5 10 7 10 15 14 14 8 4 4 3 5 3 3 3 3 3 4 5 7 7 7 3 6 3 3 1 8 1 1 2 8 7
11 13 13 11 11 10 9 9 9 8 8 8 8 9 10 11 10 9 5 6 6 5 5 4 13 7 9 4 7 6 4 5 4 3 4 4 3 3 4 4 2 4 7 5 5 5 6 8 4 6 4 5 6 9
12 11 11 10 11 11 10 9 9 8 8 7 7 9 10 11 12 8 6 6 6 2 5 10 18 13 13 9 9 6 2 4 3 3 4 5 3 3 4 3 4 4 3 3 3 5 3 6 9 8 6 7 8 7
12 12 12 11 10 10 9 9 9 8 7 7 7 8 9 10 11 5 2 3 6 5 4 5 7 10 8 0 2 2 4 4 4 4 3 3 4 3 3 4 4 12 13 7 3 7 9 7 6 12 12 8 14 12
12 12 12 11 10 9 9 9 9 8 7 6 6 8 9 8 3 4 3 3 6 6 3 6 6 4 7 4 2 3 2 1 1 2 2 3 3 2 3 10 10 6 5 7 6 7 9 9 9 11 13 17 16 17
12 12 11 11 10 9 8 8 8 8 7 6 7 8 10 11 10 6 2 13 3 4 3 4 6 5 5 4 2 0 1 2 2 3 1 2 2 2 5 6 3 4 2 5 6 8 12 15 16 14 14 14 17 15
11 11 11 11 10 9 7 7 7 8 6 4 6 9 5 3 3 2 4 9 3 3 3 4 4 3 4 4 2 2 1 2 3 2 3 2 4 6 7 8 5 2 4 9 12 13 13 16 17 16 14 14 16 14
11 11 11 10 9 8 7 6 10 8 5 0 2 2 2 1 9 5 1 3 3 3 4 4 5 5 5 2 2 2 0 3 2 4 3 4 6 9 2 4 4 6 10 11 16 17 14 16 14 15 16 16 15 11
12 11 11 11 10 8 8 10 12 9 2 2 2 3 2 3 2 4 3 4 4 4 5 5 8 7 4 2 1 1 2 3 3 2 1 3 1 2 2 5 7 10 10 15 15 17 17 17 15 16 17 17 15 14
12 12 11 11 10 10 10 15 13 4 1 0 1 4 3 3 3 3 4 4 5 4 4 4 4 4 1 3 2 2 3 2 5 1 2 3 3 2 4 7 10 13 13 16 15 17 19 19 18 18 17 17 16 15
12 12 12 11 11 10 15 16 14 5 2 0 1 3 2 3 1 5 5 4 3 4 3 2 2 3 1 1 3 1 3 5 2 3 3 1 1 2 5 7 11 13 13 16 16 15 20 20 20 18 18 16 15 15
13 12 12 11 10 15 16 15 12 2 1 2 4 3 5 6 6 6 7 3 4 2 3 4 1 2 2 3 2 3 4 3 3 3 4 2 3 4 5 6 10 15 17 18 19 19 20 19 16 14 14 13 13 12
12 11 11 10 15 17 15 12 10 2 2 4 4 5 8 9 7 2 2 4 3 1 1 1 1 3 2 2 3 3 4 4 4 2 3 4 4 5 6 7 11 13 16 16 17 16 18 18 11 7 8 10 10 8
11 9 6 16 19 17 15 11 3 2 3 4 6 6 8 5 5 4 3 4 1 2 2 2 2 2 4 4 5 6 4 2 2 3 2 3 4 5 5 7 10 13 16 16 15 15 17 10 9 7 5 6 7 7
13 2 18 20 19 16 13 3 4 4 4 5 6 8 10 8 5 5 4 2 1 2 2 1 4 4 2 3 4 1 3 3 7 4 1 2 3 4 5 7 9 13 17 15 14 14 11 8 11 14 4 3 4 4
1 11 23 24 14 7 2 3 4 4 7 7 8 8 7 4 5 5 5 3 3 3 3 3 2 3 2 3 4 3 4 6 6 2 1 1 4 3 3 6 8 11 14 15 14 14 9 6 5 8 10 3 6 6
11 14 25 20 5 4 4 4 3 4 9 7 8 8 5 6 5 5 5 5 5 2 4 3 4 3 3 4 3 3 6 6 2 2 1 1 3 2 4 5 6 6 12 13 13 10 8 8 8 7 6 5 2 2
21 23 21 10 4 2 5 4 5 5 5 4 5 6 5 5 6 5 6 7 5 3 4 4 4 6 3 4 5 4 4 2 2 4 3 4 2 0 3 4 3 6 6 10 10 13 6 7 7 6 4 2 1 3
11 9 10 1 2 3 3 3 4 4 5 4 6 3 4 5 6 8 9 6 3 5 5 7 8 9 5 4 3 2 3 3 4 4 3 4 3 1 4 3 3 3 3 6 8 10 10 9 7 6 6 8 9 13
5 13 3 2 3 4 5 5 4 2 3 6 7 5 4 3 3 5 4 5 5 6 5 5 5 5 4 5 4 3 4 5 6 1 3 2 3 4 4 4 3 3 3 4 5 8 8 8 8 9 9 10 11 13
12 3 2 5 4 2 6 2 4 4 4 3 3 3 3 2 3 3 2 3 3 4 4 4 2 9 6 6 6 6 6 5 2 1 0 1 1 1 3 4 4 3 4 3 4 5 7 9 11 10 11 11 11 11
5 4 5 5 6 4 3 4 4 3 3 3 3 2 1 3 1 2 4 3 3 3 0 4 2 5 4 4 4 4 4 4 4 4 4 3 4 3 3 4 5 4 5 4 3 4 4 6 8 9 10 11 11 10
2 4 4 4 4 4 4 4 5 4 4 3 3 1 1 2 3 3 1 3 3 2 3 1 2 3 5 3 4 4 13 6 6 5 4 5 6 4 6 6 5 5 5 6 3 4 4 4 5 7 8 9 10 10
2 5 4 7 4 5 4 3 1 1 3 3 2 3 2 2 2 3 3 3 3 3 2 4 5 6 4 2 6 6 5 5 8 8 7 8 6 3 7 6 5 4 4 4 5 5 6 6 6 7 6 8 11 11
3 5 5 4 3 2 2 1 3 3 2 2 2 3 2 3 4 4 4 3 1 3 3 4 5 6 9 6 4 5 2 7 7 7 7 7 7 6 6 6 4 2 3 4 4 5 7 7 8 9 8 9 8 8
5 3 7 7 5 2 3 1 1 1 3 3 2 2 1 2 6 4 4 2 5 4 2 4 4 3 3 4 5 3 6 5 5 7 8 7 7 5 4 4 4 11 8 6 6 7 8 8 8 8 8 7 5 7
4 2 2 1 2 1 1 2 2 3 1 2 2 2 3 3 4 6 4 9 8 8 6 7 7 8 8 5 3 5 4 7 8 8 6 5 4 4 3 5 4 4 6 8 12 11 8 9 10 10 11 8 6 5
2 4 4 4 3 4 3 4 2 1 2 3 2 4 4 7 5 5 8 9 8 9 8 8 7 6 9 8 5 5 4 8 4 4 3 0 4 7 5 5 5 5 4 5 6 6 7 5 7 6 5 5 4 6
1 2 1 1 3 4 5 5 5 7 5 5 3 5 6 5 2 1 1 2 5 5 5 7 6 8 8 8 6 5 4 7 5 5 5 5 4 5 2 2 4 5 4 7 2 6 4 4 6 7 8 6 5 5
1 1 2 3 1 2 5 2 6 4 1 3 3 3 2 3 2 5 5 3 8 5 6 8 7 9 8 4 6 5 10 7 4 5 8 6 3 3 5 4 2 4 5 5 7 7 8 7 4 5 4 5 6 6
2 1 4 4 2 4 3 4 4 3 2 2 2 1 1 2 3 2 3 5 4 5 5 6 7 4 4 3 4 8 10 7 7 9 10 10 9 8 5 6 5 6 9 7 7 7 8 7 6 7 4 7 8 8
Wind_Direction
277 278 281 285 293 300 304 305 304 308 314 325 332 339 344 349 353 354 283 295 311 296 290 257 338 334 335 330 315 344 336 8 326 323 294 347 329 348 357 323 356 6 330 341 331 268 268 7 14 50 256 292 340 339
278 277 277 278 283 289 294 296 300 296 298 311 323 330 338 344 350 345 283 339 340 273 275 299 284 266 258 270 286 317 299 303 292 339 356 342 329 314 345 305 352 21 75 178 103 232 214 218 166 148 193 110 318 311
282 283 281 275 275 283 290 293 296 290 284 294 310 320 329 334 343 356 297 302 301 286 290 244 245 261 214 226 222 240 297 343 339 349 314 289 315 330 308 297 346 344 28 358 16 199 7 195 82 39 29 332 298 312
258 271 276 276 281 284 285 288 290 281 268 280 297 310 319 324 327 332 305 304 288 300 285 290 15 341 319 249 193 223 262 334 318 335 293 278 287 263 299 279 309 309 340 306 285 32 9 83 150 184 194 188 231 279
260 255 261 269 273 271 275 278 283 280 260 269 289 305 316 320 319 298 259 263 273 329 307 302 303 278 239 234 212 202 234 277 277 280 258 265 290 360 316 314 289 265 17 14 283 343 275 310 340 254 257 255 242 241
258 256 255 252 255 259 264 273 273 272 243 254 279 297 314 322 328 289 218 100 6 356 288 298 338 276 267 89 126 193 228 240 213 222 263 311 348 17 262 275 324 323 323 44 342 323 302 295 318 329 339 300 290 273
256 253 251 249 248 249 257 265 266 255 221 242 276 293 304 309 312 267 322 318 348 314 268 290 282 214 243 152 193 228 165 162 42 303 259 254 257 88 252 267 270 270 7 327 329 347 322 320 303 308 301 299 297 295
254 251 249 245 242 241 248 260 260 219 208 237 272 293 300 293 272 276 214 232 217 267 258 281 275 268 164 210 198 94 146 143 209 232 266 233 284 170 262 251 174 174 301 298 294 297 287 290 292 284 279 285 294 299
253 252 246 238 234 234 239 241 226 185 202 247 299 302 287 213 246 84 112 116 179 293 283 257 270 330 5 6 95 52 55 277 246 218 220 140 206 220 232 242 227 199 286 293 298 288 289 281 283 278 277 275 277 283
247 248 239 226 224 219 221 234 181 175 171 336 297 260 267 240 118 133 156 184 195 239 223 262 296 285 329 27 344 357 231 271 284 235 142 208 241 247 80 32 352 282 270 287 300 303 291 282 282 282 285 282 270 274
246 241 230 218 215 215 210 184 160 143 116 207 223 234 349 103 258 219 232 219 182 224 210 236 220 243 307 15 15 11 292 274 266 263 253 258 244 95 139 281 285 299 309 305 298 289 284 280 273 268 266 265 267 261
244 237 221 211 207 204 191 165 163 185 172 271 312 285 275 220 239 259 243 229 210 253 199 214 232 196 26 339 23 31 289 321 250 349 263 258 96 106 328 317 320 314 303 295 291 288 286 278 271 262 261 259 260 255
242 226 211 204 197 199 173 165 174 68 347 271 233 267 187 224 168 228 221 201 219 206 301 27 326 131 117 72 72 296 254 238 287 235 241 194 226 357 338 324 313 306 305 298 292 295 294 285 274 249 253 246 253 252
229 210 202 192 191 172 164 165 172 115 53 199 199 267 227 206 229 204 252 276 286 87 84 270 264 185 221 179 128 243 225 252 256 236 230 9 31 325 318 312 309 314 307 300 305 304 297 288 282 247 236 235 244 248
206 198 186 185 168 155 153 149 151 212 252 235 224 232 225 244 279 279 296 312 282 290 337 354 326 171 166 262 222 261 241 239 224 315 309 330 305 306 304 313 317 316 312 314 311 305 299 302 293 268 231 221 228 243
182 160 181 158 149 141 138 129 154 218 243 243 237 243 267 258 272 268 299 258 12 297 273 144 235 242 216 236 197 219 239 259 342 268 290 304 324 320 325 320 318 317 322 321 315 308 303 320 327 260 256 200 200 213
159 158 155 140 135 138 158 146 182 215 253 234 237 234 253 273 277 277 286 311 1 324 265 291 243 226 272 229 226 259 335 297 314 332 92 28 337 335 321 315 323 328 332 328 329 329 334 340 3 11 346 307 315 291
128 143 139 133 129 115 148 223 215 229 241 246 257 266 269 273 291 287 285 244 152 242 146 243 320 290 250 300 315 1 306 277 258 299 163 160 281 348 352 324 324 334 335 338 338 332 327 345 29 31 325 310 38 46
142 145 142 143 134 129 159 192 227 243 229 253 249 253 270 279 262 279 279 285 278 191 145 137 240 211 223 242 242 221 236 240 294 307 180 243 57 2 313 315 316 331 338 333 335 338 333 1 23 352 58 65 94 277
138 144 144 126 27 179 194 197 206 253 268 263 267 261 252 256 268 271 272 272 222 191 198 207 235 254 201 207 213 248 282 19 330 329 325 342 115 182 304 298 305 312 321 336 344 344 353 26 28 352 7 74 138 238
107 144 138 27 252 221 272 205 222 248 279 272 285 306 253 248 236 241 238 250 227 216 219 222 246 263 276 244 276 282 295 345 306 320 343 323 332 213 307 300 289 287 1 359 355 355 9 9 8 10 20 58 56 43
97 152 125 184 257 231 242 222 252 323 270 270 291 257 247 252 243 245 249 238 238 251 232 244 260 284 293 287 271 289 285 295 287 147 319 303 345 350 333 314 27 84 58 13 359 8 5 5 15 32 48 55 58 73
151 167 210 209 237 179 255 197 234 228 248 246 237 230 213 223 249 160 219 239 244 226 241 237 293 275 253 286 304 311 302 284 275 320 136 177 201 276 5 35 26 69 108 51 28 27 28 8 23 40 43 52 62 67
190 188 213 200 190 242 217 212 226 243 241 238 244 265 283 222 229 218 239 224 190 133 217 228 252 308 314 28 22 331 324 274 226 166 162 173 93 49 30 21 23 31 101 130 99 77 42 34 30 45 44 50 50 60
130 263 135 269 226 233 211 240 207 220 250 227 254 261 282 243 238 239 355 22 5 335 299 166 106 91 110 103 56 353 289 293 298 146 168 118 114 93 68 51 48 58 75 82 72 78 85 83 73 83 89 85 72 55
186 210 175 206 198 220 211 252 261 247 282 306 337 316 301 270 267 11 329 319 308 333 110 133 133 115 92 156 184 237 261 87 70 59 50 60 118 101 93 91 83 73 90 94 91 80 81 81 86 82 75 73 76 87
238 223 195 231 269 295 275 242 246 265 301 298 316 287 326 11 38 281 276 258 174 248 195 149 140 147 161 201 254 269 72 82 88 90 82 74 66 66 67 73 70 329 92 91 98 88 99 105 90 86 86 92 88 91
249 242 224 198 208 188 226 202 328 261 254 209 276 330 267 149 206 237 226 215 239 296 150 152 174 199 218 250 278 73 77 84 107 118 111 104 102 91 77 69 89 89 63 32 73 82 86 86 95 97 96 92 79 71
256 344 3 115 148 238 332 257 233 227 9 40 323 299 256 243 187 200 214 212 201 220 169 183 210 215 220 197 117 129 158 106 86 78 83 113 114 120 130 94 73 70 85 83 66 66 66 86 88 86 92 97 95 81
253 167 207 207 213 226 214 195 206 130 207 164 268 304 273 268 212 212 180 198 197 189 187 194 193 203 143 127 131 106 104 98 99 130 136 45 149 122 133 136 137 117 100 98 102 85 67 96 106 106 93 70 75 98
260 181 202 284 259 246 216 241 227 200 206 248 241 252 269 303 202 328 275 195 138 113 97 38 54 105 118 147 103 84 106 115 86 89 91 40 26 134 146 119 114 152 158 126 104 127 123 76 73 83 99 102 91 93
75 224 170 255 256 193 202 104 3 306 227 202 170 225 287 345 275 5 354 70 114 110 106 102 87 94 84 68 104 115 91 98 81 77 63 47 81 74 50 32 234 165 143 125 132 129 123 119 115 73 94 122 139 131
294 257 248 271 232 176 216 125 150 238 229 359 340 356 54 262 272 109 82 75 34 103 112 107 116 107 64 61 97 97 83 82 87 87 79 68 56 40 52 34 55 74 96 114 106 115 117 103 98 83 1 74 76 64